TITAN 3C TRANSTAGE R/B, 3292

Orbit data source: Space-Track

TITAN 3C TRANSTAGE R/B, 3292 is space debris in GEO originally from a launch on Thu, 13 Jun 1968 UTC launched from the Air Force Eastern Test Range (AFETR). Debris objects in space refer to the collection of defunct objects orbiting the Earth. Examples of debris include non-operational satellites, rocket bodies, and fragments generated from explosions, collisions, or faulty payload assembly.

Not visible in the next 10 days
Identifier
3292, 1968-050J
Orbit
GEO
Country
Flag of USUS
Related business
Manufacturer
Martin Marietta
Mission
Spacecraft
Bus & Motor
TRANSTAGE, Unknown motor
Mass
~1,950 kg wet, ~1,950 kg dry
Launch date (UTC)
1968-06-13 (57 years ago)
Launch vehicle
Unknown
Launch site
Air Force Eastern Test Range (AFETR)
Object type
Payload
Rocket body
Debris
Shape & HBR
Unknown
Radar Cross Section
Large (>1 m²)

Expand to show TLE details & history
Last TLE update: 7 hours ago

TLE from 7 hours ago
0 TITAN 3C TRANSTAGE R/B
1  3292U 68050J   25300.07802749 -.00000060  00000-0  00000+0 0  9998
2  3292   7.1363  54.9532 0173387   1.0562  11.5413  1.05593524 44040
Epoch: 2025-10-27T01:52Z
TLE epoch observation values (Epoch: 2025-10-27T01:52:21.575Z)
Latitude
1.6073°
Longitude
4.05763°
Altitude
33,663.487 km
Speed
3.182 km/s
True Right ascension
04h 31m 19s
True Declination
1° 36' 20"
Sunlit
Object was in daylight at epoch
Visualization orbit readout
Latitude
Unknown
Longitude
Unknown
Altitude
Unknown
Speed
Unknown
Apparent Right ascension
Unknown
Apparent Declination
Unknown
Sunlit
N/A
Visualization observer readout
Local Sidereal Time
04:21:15
Azimuth
Unknown
Elevation
Unknown
Doppler factor
Unknown
Orbital elements
Apogee altitude
35,065.139 km
Perigee altitude
33,652.488 km
Semi-major axis
40,736.951 km
Eccentricity
0.01734
Inclination
7.1363°
RAAN
54.9532°
Arg. of periapsis
1.0562°
True anomaly
11.94743°
Mean anomaly
11.5413°
Eccentric anomaly
11.74349°
Mean motion
0.26397 °/min
Orbital period
1,363.77 mins
BSTAR
0
Loading maneuver chart data...
Computing Atmospheric mass density...
Loading historical data...
Loading historical data...
Loading historical data...
Loading historical data...
Loading historical data...
Loading historical data...
Loading historical data...

Documentation

Showing up to 5 results
|